Location: Warszawa
(52.2500°N, 21.0000°E)
Time: 20:33:43
(UTC+02:00)

Vanguard 2 - Pass Details

Date: 03 February 2023
Orbit: 553 x 2927 km, 32.9° (Epoch: 27 March)

Event Time Altitude Azimuth Distance (km) Brightness Sun altitude
Exits shadow 04:26:23 14° 219° (SW) 5,033 11.3 -25.8°
Drops below altitude 10° 04:31:19 10° 199° (SSW) 5,090 11.5 -25.0°
Sets 04:37:35 0° 178° (S) 5,629 11.9 -24.1°
